Location: Regensburg
(48.4565°N, 10.3217°E)
Time: 03:43:49
(UTC+02:00)

ISS - Pass Details

Date: 10 January 2018
Orbit: 401 x 409 km, 51.6° (Epoch: 20 August)

Event Time Altitude Azimuth Distance (km) Brightness Sun altitude
Exits shadow 05:13:03 20° 77° (ENE) 1,054 -1.1 -28.2°
Drops below altitude 10° 05:14:15 10° 84° (E) 1,510 0.0 -28.0°
Enters shadow 06:09:56 -70° 288° (WNW) 12,401 3.7 -18.9°
Maximum altitude 06:47:45 67° 207° (SSW) 463 -3.6 -12.8°
